Weather History for Holloman AFB, NM

Change the Weather History Date:

Friday, January 4, 2013

  Actual Average Record
Temperature  
Mean Temperature 28 °F -  
Max Temperature 33 °F 52 °F 66 °F (2006)
Min Temperature 24 °F 24 °F 12 °F (2000)
Degree Days  
Heating Degree Days 37    
Moisture  
Dew Point 27 °F    
Average Humidity 97    
Maximum Humidity 100    
Minimum Humidity 75    
Precipitation  
Precipitation 0.03 in - - ()
Sea Level Pressure  
Sea Level Pressure 30.32 in    
Wind  
Wind Speed 2 mph (SW)    
Max Wind Speed 5 mph    
Max Gust Speed -    
Visibility 8 miles    
Events Snow    
Averages and records for this station are not official NWS values.
T = Trace of Precipitation, MM = Missing Value Source: NWS Daily Summary

Daily Weather History Graph

Daily Weather History Graph

Search for Another Location

Airport:

Trip Planner

Search our weather history database for the weather conditions in past years. The results will help you decide how hot, cold, wet, or windy it might be!

Date:

Astronomy

Jan. 04, 2013 Rise Set
Actual Time 7:07 AM MST 5:11 PM MST
Civil Twilight 6:40 AM MST 5:38 PM MST
Nautical Twilight 6:09 AM MST 6:09 PM MST
Astronomical Twilight 5:39 AM MST 6:39 PM MST
Moon No Moon Rise 11:16 AM MST (1/4)
Length of Visible Light 10h 58m
Length of Day
10h 04m
Waning Gibbous, 54% of the Moon is Illuminated
Jan 4
Waning Gibbous
Jan 4
Last Quarter
Jan 11
New
Jan 18
First Quarter
Jan 26
Full

Hourly Weather History & Observations

Time (MST) Temp. Windchill Dew Point Humidity Pressure Visibility Wind Dir Wind Speed Gust Speed Precip Events Conditions
12:00 AM 30.2 °F 25.4 °F 28.4 °F 93% 30.31 in 6.0 mi SSW 4.6 mph - N/A   Overcast
12:10 AM 30.2 °F 26.7 °F 28.4 °F 93% 30.31 in 5.0 mi SW 3.5 mph - N/A   Overcast
12:30 AM 28.4 °F - 28.4 °F 100% 30.31 in 4.0 mi SW 2.3 mph - N/A Snow Light Snow
12:58 AM 29.1 °F - 28.9 °F 99% 30.32 in 4.0 mi SW 2.3 mph - 0.01 in Snow Light Snow
1:08 AM 28.4 °F 24.6 °F 28.4 °F 100% 30.30 in 4.0 mi SW 3.5 mph - N/A Snow Light Snow
1:33 AM 28.4 °F 23.3 °F 28.4 °F 100% 30.30 in 2.5 mi SW 4.6 mph - N/A Snow Light Snow
1:48 AM 28.4 °F 24.6 °F 28.4 °F 100% 30.30 in 3.0 mi SW 3.5 mph - N/A Snow Light Snow
1:58 AM 28.8 °F 25.0 °F 28.6 °F 99% 30.32 in 4.0 mi WSW 3.5 mph - 0.00 in Snow Light Snow
2:13 AM 28.4 °F 24.6 °F 28.4 °F 100% 30.31 in 2.5 mi WSW 3.5 mph - N/A Snow Light Snow
2:18 AM 28.4 °F 24.6 °F 28.4 °F 100% 30.31 in 1.8 mi WSW 3.5 mph - N/A Snow Light Snow
2:23 AM 28.4 °F - 28.4 °F 100% 30.31 in 2.0 mi WSW 2.3 mph - N/A Snow Light Snow
2:58 AM 28.2 °F - 28.0 °F 99% 30.34 in 3.0 mi SW 2.3 mph - 0.00 in Snow Light Snow
3:35 AM 26.6 °F 22.6 °F 26.6 °F 100% 30.31 in 4.0 mi SW 3.5 mph - N/A   Scattered Clouds
3:50 AM 26.6 °F 22.6 °F 26.6 °F 100% 30.31 in 6.0 mi WSW 3.5 mph - N/A   Mostly Cloudy
3:55 AM 26.6 °F 22.6 °F 26.6 °F 100% 30.31 in 7.0 mi WSW 3.5 mph - N/A   Mostly Cloudy
3:58 AM 27.0 °F 23.0 °F 26.8 °F 99% 30.34 in 7.0 mi WSW 3.5 mph - 0.00 in   Mostly Cloudy
4:18 AM 26.6 °F - 26.6 °F 100% 30.31 in 5.0 mi WSW 2.3 mph - N/A   Overcast
4:28 AM 26.6 °F - 26.6 °F 100% 30.30 in 7.0 mi Calm Calm - N/A   Overcast
4:58 AM 25.7 °F - 25.5 °F 99% 30.35 in 8.0 mi Calm Calm - N/A   Overcast
5:13 AM 24.8 °F - 24.8 °F 100% 30.30 in 9.0 mi Calm Calm - N/A   Overcast
5:28 AM 24.8 °F - 24.8 °F 100% 30.30 in 10.0 mi Calm Calm - N/A   Overcast
5:43 AM 26.6 °F - 26.6 °F 100% 30.30 in 10.0 mi Calm Calm - N/A   Overcast
5:58 AM 26.6 °F - 26.4 °F 99% 30.34 in 10.0 mi Calm Calm - 0.01 in   Overcast
6:01 AM 26.6 °F - 26.6 °F 100% 30.30 in 10.0 mi Calm Calm - N/A   Overcast
6:06 AM 26.6 °F - 26.6 °F 100% 30.30 in 9.0 mi Calm Calm - N/A   Overcast
6:28 AM 26.6 °F - 26.6 °F 100% 30.30 in 8.0 mi Calm Calm - N/A   Overcast
6:43 AM 26.6 °F - 26.6 °F 100% 30.30 in 8.0 mi Calm Calm - N/A   Overcast
6:46 AM 26.6 °F - 26.6 °F 100% 30.30 in 8.0 mi Calm Calm - N/A   Overcast
6:56 AM 26.6 °F - 26.6 °F 100% 30.31 in 8.0 mi Calm Calm - N/A   Overcast
6:58 AM 26.4 °F - 26.2 °F 99% 30.35 in 8.0 mi Calm Calm - 0.00 in   Overcast
7:02 AM 26.6 °F - 26.6 °F 100% 30.31 in 7.0 mi WSW 2.3 mph - N/A   Overcast
7:05 AM 26.6 °F - 26.6 °F 100% 30.31 in 7.0 mi West 1.2 mph - N/A   Overcast
7:10 AM 26.6 °F - 26.6 °F 100% 30.31 in 7.0 mi Calm Calm - N/A   Overcast
7:14 AM 26.6 °F - 26.6 °F 100% 30.31 in 7.0 mi Calm Calm - N/A   Overcast
7:15 AM 26.6 °F - 26.6 °F 100% 30.31 in 7.0 mi Calm Calm - N/A   Overcast
7:16 AM 26.6 °F - 26.6 °F 100% 30.31 in 7.0 mi Calm Calm - N/A   Overcast
7:26 AM 26.6 °F - 26.6 °F 100% 30.31 in 7.0 mi Calm Calm - N/A   Overcast
7:36 AM 26.6 °F - 26.6 °F 100% 30.31 in 8.0 mi Calm Calm - N/A   Overcast
7:46 AM 26.6 °F - 26.6 °F 100% 30.32 in 9.0 mi Calm Calm - N/A   Overcast
7:58 AM 26.6 °F - 26.4 °F 99% 30.36 in 9.0 mi Calm Calm - 0.00 in   Overcast
7:59 AM 26.6 °F - 26.6 °F 100% 30.32 in 9.0 mi Calm Calm - N/A   Overcast
8:07 AM 26.6 °F - 26.6 °F 100% 30.32 in 9.0 mi Calm Calm - N/A   Overcast
8:09 AM 26.6 °F - 26.6 °F 100% 30.32 in 9.0 mi Calm Calm - N/A   Overcast
8:20 AM 26.6 °F - 26.6 °F 100% 30.32 in 8.0 mi Calm Calm - N/A   Overcast
8:58 AM 27.5 °F - 27.1 °F 99% 30.37 in 10.0 mi Calm Calm - 0.00 in   Overcast
9:03 AM 28.4 °F - 26.6 °F 93% 30.33 in 10.0 mi Calm Calm - N/A   Overcast
9:13 AM 28.4 °F - 26.6 °F 93% 30.34 in 10.0 mi Calm Calm - N/A   Overcast
9:29 AM 28.4 °F - 28.4 °F 100% 30.34 in 9.0 mi Calm Calm - N/A   Overcast
9:30 AM 28.4 °F - 28.4 °F 100% 30.34 in 9.0 mi Calm Calm - N/A   Overcast
9:35 AM 28.4 °F - 28.4 °F 100% 30.34 in 10.0 mi Calm Calm - N/A   Overcast
9:39 AM 28.4 °F - 28.4 °F 100% 30.34 in 10.0 mi Calm Calm - N/A   Overcast
9:49 AM 28.4 °F - 28.4 °F 100% 30.35 in 10.0 mi Calm Calm - N/A   Overcast
9:55 AM 28.6 °F - 28.4 °F 99% 30.38 in 10.0 mi Calm Calm - 0.01 in   Overcast
9:59 AM 28.4 °F - 28.4 °F 100% 30.38 in 10.0 mi Calm Calm - N/A   Overcast
10:00 AM 28.4 °F - 28.4 °F 100% 30.38 in 10.0 mi Calm Calm - N/A   Overcast
10:27 AM 30.2 °F - 28.4 °F 93% 30.37 in 10.0 mi Calm Calm - N/A   Mostly Cloudy
10:40 AM 30.2 °F 26.7 °F 30.2 °F 100% 30.36 in 10.0 mi WSW 3.5 mph - N/A   Overcast
10:55 AM 29.8 °F 26.3 °F 28.9 °F 96% 30.36 in 6.2 mi SW 3.5 mph - 0.00 in   Overcast
10:56 AM 30.2 °F 25.4 °F 28.4 °F 93% 30.36 in 10.0 mi WSW 4.6 mph - N/A   Overcast
11:02 AM 30.2 °F 26.7 °F 28.4 °F 93% 30.36 in 10.0 mi SW 3.5 mph - N/A   Overcast
11:04 AM 30.2 °F 25.4 °F 28.4 °F 93% 30.36 in 10.0 mi SSW 4.6 mph - N/A   Overcast
11:18 AM 30.2 °F - 28.4 °F 93% 30.35 in 10.0 mi Calm Calm - N/A   Scattered Clouds
11:22 AM 30.2 °F - 28.4 °F 93% 30.33 in 10.0 mi Calm Calm - N/A   Scattered Clouds
11:39 AM 32.0 °F 28.7 °F 28.4 °F 87% 30.34 in 9.0 mi SW 3.5 mph - N/A   Scattered Clouds
11:50 AM 30.2 °F 25.4 °F 28.4 °F 93% 30.34 in 8.0 mi SW 4.6 mph - N/A   Mostly Cloudy
11:55 AM 30.9 °F 26.2 °F 28.0 °F 89% 30.33 in 9.0 mi SW 4.6 mph - 0.00 in   Mostly Cloudy
12:01 PM 30.2 °F 26.7 °F 28.4 °F 93% 30.33 in 10.0 mi WSW 3.5 mph - N/A   Overcast
12:27 PM 32.0 °F 27.5 °F 28.4 °F 87% 30.31 in 10.0 mi SW 4.6 mph - N/A   Mostly Cloudy
12:55 PM 32.0 °F - 27.5 °F 83% 30.30 in 10.0 mi Calm Calm - 0.00 in   Mostly Cloudy
12:59 PM 32.0 °F - 26.6 °F 80% 30.30 in 9.0 mi Calm Calm - N/A   Mostly Cloudy
1:10 PM 32.0 °F - 26.6 °F 80% 30.29 in 9.0 mi Calm Calm - N/A   Mostly Cloudy
1:19 PM 32.0 °F - 28.4 °F 87% 30.28 in 10.0 mi Calm Calm - N/A   Mostly Cloudy
1:32 PM 32.0 °F 28.7 °F 28.4 °F 87% 30.28 in 10.0 mi WSW 3.5 mph - N/A   Mostly Cloudy
1:55 PM 32.2 °F 28.9 °F 27.1 °F 82% 30.27 in 10.0 mi South 3.5 mph - 0.00 in   Mostly Cloudy
2:55 PM 33.8 °F - 26.6 °F 75% 30.26 in 7.0 mi Calm Calm - N/A   Mostly Cloudy